CAPE
0 0 0 0 11 10 0 4 21 418 753 1135 998 793 305 296 152 13 0 332 1332 1479 1604 1600 2078 2073 1218 931 832 595 318 240 208 122 98 133 222 185 182 290 390 75 15 5 2 0 0 0 0
0 0 0 5 1 2 2 81 261 632 906 798 886 1042 638 118 3 85 178 1006 1282 1447 1436 1473 2200 2052 1306 1024 941 728 375 290 293 329 310 358 377 326 284 355 290 176 150 105 56 27 0 0 0
0 0 0 4 2 0 47 241 325 303 380 590 583 869 877 93 4 19 250 1017 1145 1110 1304 1548 2245 2030 1554 1070 982 820 535 402 369 376 403 438 440 529 759 662 508 233 153 87 31 1 4 0 0
0 0 0 6 0 0 0 159 191 141 77 46 366 495 868 757 337 51 744 1033 1013 1046 1254 2051 2212 2015 1677 1081 1003 895 685 548 433 451 488 506 480 532 811 665 581 247 136 70 38 29 27 53 75
0 0 0 0 0 0 0 166 133 82 31 48 135 264 244 819 804 194 414 859 1015 1146 1326 1502 2139 2033 1681 1143 1055 995 905 772 746 492 529 562 571 552 660 554 323 227 155 97 53 28 30 74 153
0 0 0 0 0 0 73 156 156 133 113 32 3 118 149 139 139 1 286 752 1114 1230 1354 1431 1910 1971 1707 1547 1452 1435 1400 1215 908 772 680 586 574 568 516 564 456 292 217 144 103 96 198 290 444
0 0 0 0 0 0 95 136 135 135 103 38 0 52 168 33 1 0 472 774 1053 1345 1414 1506 1528 1534 1684 1744 1727 1619 1592 1494 1424 1214 1029 871 586 686 733 793 695 569 534 513 434 467 598 676 759
0 0 1 0 0 0 110 132 139 93 49 29 0 91 180 150 9 82 441 636 884 1252 1327 1351 1380 1199 1405 1407 1530 1586 1569 1580 1553 1401 1236 1246 1021 938 1009 893 942 828 904 935 1061 1035 1115 1137 1058
0 0 0 0 0 10 155 137 125 75 59 15 8 0 225 268 277 385 345 322 651 860 1154 1219 1189 1252 1219 1240 1246 1631 1420 1438 1500 1361 1452 1358 1038 1023 1030 1122 1081 1283 1386 1439 1429 1380 1388 1498 1513
0 0 0 0 0 0 91 138 96 104 47 11 2 19 345 335 305 305 204 246 248 495 750 1034 1070 1076 1128 1104 1089 1229 1027 1165 1334 1336 1284 1093 890 728 877 1024 1405 1604 1768 1709 1583 1544 1653 1811 1269
0 0 0 0 0 0 59 134 91 93 42 7 0 0 444 346 43 353 303 254 248 199 308 664 849 884 914 983 1052 874 842 974 1009 1003 961 1003 791 596 770 796 982 1142 1550 1197 1230 1247 1262 1281 1195
0 0 0 0 0 0 0 21 119 66 35 14 0 0 489 371 13 355 446 385 343 286 253 435 455 536 709 797 954 745 762 820 659 615 624 629 509 431 467 620 760 946 1084 1180 1032 938 801 790 899
0 0 0 0 0 0 0 0 66 129 122 129 124 134 591 485 300 301 513 480 524 480 427 443 504 468 491 762 595 597 600 585 398 362 404 535 561 394 371 489 762 951 1093 947 991 894 577 593 727
0 0 0 0 0 0 0 0 0 2 92 672 712 657 715 715 622 579 564 493 608 625 632 611 675 690 693 785 530 718 722 620 580 568 496 493 560 561 607 649 595 1100 1102 1042 1033 973 698 667 942
0 0 0 0 0 0 0 0 0 0 0 512 941 985 1558 1177 1024 665 683 556 540 467 747 744 847 969 1032 1140 920 976 981 937 922 716 665 688 648 632 726 534 601 503 604 546 507 486 503 594 904
0 0 0 0 0 0 0 0 0 0 0 0 1417 1811 2114 2138 2336 2344 1553 942 638 897 751 858 1108 1127 1065 1150 1339 1598 1353 1182 1165 1068 1033 886 862 807 736 891 947 690 566 863 843 508 451 651 840
0 0 0 0 0 0 0 0 0 0 0 601 1651 2105 2285 2366 2391 2331 2320 2209 1716 1117 1468 1188 1252 1284 1255 1411 1946 1842 1868 1830 1698 1602 1510 1228 991 826 842 932 1025 1096 1039 1095 1169 1247 1169 1083 1011
0 0 0 0 0 0 0 0 0 0 0 1241 1508 2054 2380 2430 2407 2540 2497 2379 2222 2195 2290 2311 2274 2243 2437 2149 2202 2160 2029 1971 1902 1791 1599 1557 1285 1205 1174 1064 1285 1214 1300 1258 1102 1056 1015 1100 1168
0 0 0 0 0 0 0 0 0 0 0 1259 1168 1693 2122 2285 2422 2532 2601 2689 2703 2500 2397 2433 2747 2831 2745 2796 2721 2662 2228 1965 1897 1944 1792 1504 1188 962 1096 1341 1446 1380 1217 1220 1281 1227 1211 925 830
0 0 0 0 0 0 0 0 0 0 0 915 1099 1299 1453 1660 2180 2424 2487 2575 2625 2697 2703 2605 2386 2592 2864 2797 2694 2512 2431 2379 2272 1967 1906 1658 1378 1210 1366 1276 1397 1456 1202 1030 1027 1056 909 857 512
0 0 0 0 0 0 0 0 0 0 0 60 960 1268 1218 1157 980 1032 1910 2189 2330 2332 2282 2197 2275 2119 2316 2400 2527 2537 2147 1816 1920 1971 1933 1826 1586 1263 1324 1367 1150 890 1020 854 830 629 590 454 274
0 0 0 0 0 0 0 0 0 0 0 47 912 976 919 843 703 653 753 1183 1782 2052 2100 1924 1593 1633 1630 1638 2074 2150 2065 1847 1589 1334 1418 1464 1054 1063 1131 979 845 903 619 292 220 225 142 151 114
0 0 0 0 0 0 0 0 0 0 0 0 867 956 987 1042 867 826 809 769 660 740 712 1000 1427 1504 1661 1689 1726 1887 1951 1672 1422 1393 1187 875 711 927 754 577 431 159 45 0 0 0 0 0 6
0 0 0 0 0 0 0 0 0 0 0 0 541 816 1050 1105 937 853 743 846 597 582 625 556 543 870 990 1023 976 1205 1111 914 798 880 849 619 474 278 0 0 0 0 0 0 0 0 0 0 0
0 0 0 0 0 0 0 0 0 0 0 0 210 780 961 916 822 977 877 744 534 284 38 5 17 61 119 157 162 53 0 0 0 0 0 0 0 0 0 0 0 0 0 0 0 0 0 0 0
0 0 0 0 0 0 0 0 0 0 0 0 107 552 804 799 884 978 815 600 15 0 0 0 0 0 0 0 0 0 0 0 0 0 0 0 0 0 0 0 0 0 0 0 0 0 0 0 0
0 0 0 0 0 0 0 0 0 0 86 13 10 526 802 874 953 946 730 281 0 0 0 0 0 0 0 0 0 0 0 0 0 0 0 0 0 0 0 0 0 0 0 0 0 0 0 0 0
0 0 0 0 0 0 0 0 0 0 35 133 313 565 802 918 907 803 590 84 0 0 0 0 0 0 0 0 0 0 0 0 0 0 0 0 0 0 0 0 0 0 0 0 0 0 0 0 0
0 0 0 0 0 0 0 0 0 0 0 241 442 514 723 817 840 742 552 64 11 0 0 0 0 0 0 0 0 0 0 0 0 0 0 0 0 0 0 0 0 0 0 0 0 0 0 0 0
0 17 31 16 0 0 0 0 17 120 133 300 444 527 614 715 813 726 372 41 17 1 0 0 0 0 0 0 0 0 0 0 0 0 0 0 0 0 0 0 0 0 0 0 0 0 0 0 0
CIN
-0 -0 -0 -0 -15 -2 -0 -12 -3 -60 -89 -80 -85 -96 -42 -34 -27 -8 -0 -460 -191 -150 -135 -111 -53 -40 -134 -165 -173 -221 -290 -312 -317 -358 -366 -330 -260 -252 -237 -170 -114 -203 -203 -28 -21 -0 -0 -0 -0
-0 -0 -0 -18 -3 -5 -13 -108 -67 -52 -71 -71 -91 -84 -141 -215 -210 -560 -492 -230 -196 -223 -190 -163 -71 -71 -149 -179 -174 -194 -267 -299 -298 -277 -272 -236 -216 -216 -199 -151 -145 -152 -128 -116 -129 -150 -0 -0 -0
-0 -0 -0 -10 -27 -2 -80 -113 -83 -76 -73 -73 -101 -94 -110 -159 -199 -268 -498 -258 -205 -259 -217 -159 -75 -79 -123 -181 -172 -189 -238 -265 -277 -265 -237 -209 -203 -162 -91 -81 -89 -145 -151 -158 -208 -23 -161 -0 -0
-0 -0 -0 -9 -1 -0 -0 -24 -49 -57 -110 -107 -110 -114 -76 -54 -52 -286 -385 -289 -285 -287 -229 -93 -61 -70 -101 -166 -172 -181 -214 -239 -256 -240 -219 -199 -190 -162 -89 -85 -82 -164 -186 -197 -194 -205 -192 -148 -102
-0 -0 -0 -0 -0 -0 -0 -29 -49 -77 -89 -35 -136 -136 -155 -59 -38 -496 -441 -301 -309 -273 -216 -166 -76 -67 -93 -145 -148 -152 -168 -183 -187 -234 -210 -194 -176 -157 -116 -113 -172 -191 -185 -184 -184 -190 -177 -140 -103
-0 -0 -0 -0 -0 -0 -128 -120 -89 -55 -28 -24 -29 -152 -183 -167 -122 -104 -440 -362 -270 -291 -233 -183 -99 -73 -86 -94 -95 -90 -85 -100 -149 -172 -180 -189 -173 -150 -145 -112 -124 -154 -167 -176 -168 -157 -120 -100 -85
-0 -0 -0 -0 -0 -0 -91 -75 -74 -132 -81 -38 -0 -52 -201 -181 -97 -47 -413 -393 -323 -259 -217 -165 -139 -116 -85 -67 -65 -77 -78 -84 -88 -106 -117 -126 -166 -116 -96 -70 -77 -97 -107 -100 -116 -103 -82 -81 -79
-0 -0 -9 -0 -0 -1 -225 -300 -31 -61 -45 -29 -0 -130 -176 -133 -151 -471 -411 -421 -380 -304 -264 -221 -180 -180 -138 -125 -98 -95 -91 -85 -79 -88 -97 -82 -100 -100 -80 -80 -67 -87 -78 -75 -68 -65 -63 -76 -85
-0 -0 -0 -0 -0 -25 -70 -96 -36 -339 -27 -523 -131 -0 -132 -88 -480 -449 -421 -502 -434 -366 -315 -292 -267 -215 -189 -162 -156 -104 -124 -114 -97 -111 -90 -91 -130 -120 -101 -76 -78 -61 -61 -62 -72 -67 -77 -87 -76
-0 -0 -0 -0 -0 -0 -87 -159 -49 -44 -366 -241 -150 -404 -96 -77 -413 -447 -405 -533 -240 -462 -411 -347 -320 -298 -246 -214 -205 -179 -213 -182 -153 -150 -151 -173 -203 -222 -164 -123 -58 -48 -51 -52 -73 -72 -82 -88 -124
-0 -0 -0 -0 -0 -0 -115 -93 -65 -48 -98 -186 -0 -0 -86 -57 -181 -365 -71 -245 -166 -175 -94 -445 -392 -387 -362 -295 -263 -294 -288 -248 -237 -243 -245 -222 -252 -279 -216 -193 -156 -120 -73 -116 -126 -123 -130 -138 -133
-0 -0 -0 -0 -0 -0 -0 -82 -55 -122 -103 -43 -0 -0 -75 -83 -15 -126 -306 -270 -204 -177 -73 -17 -445 -465 -429 -370 -335 -361 -332 -307 -343 -355 -337 -323 -337 -320 -268 -245 -198 -182 -148 -137 -155 -159 -188 -181 -165
-0 -0 -0 -0 -0 -0 -0 -0 -57 -131 -21 -28 -44 -48 -64 -67 -47 -87 -118 -258 -265 -188 -150 -27 -57 -58 -233 -416 -446 -308 -285 -400 -305 -285 -392 -333 -293 -310 -150 -191 -204 -167 -115 -150 -146 -122 -55 -17 -76
-0 -0 -0 -0 -0 -0 -0 -0 -0 -12 -55 -26 -30 -35 -21 -32 -24 -46 -35 -85 -212 -187 -142 -82 -34 -39 -59 -44 -112 -122 -94 -103 -106 -99 -98 -194 -289 -255 -165 -137 -177 -108 -69 -68 -53 -52 -76 -38 -15
-0 -0 -0 -0 -0 -0 -0 -0 -0 -0 -0 -28 -36 -23 -166 -43 -196 -28 -27 -21 -14 -39 -153 -57 -36 -24 -36 -44 -115 -112 -89 -91 -103 -100 -96 -77 -68 -56 -129 -85 -95 -131 -110 -109 -116 -149 -128 -69 -59
-0 -0 -0 -0 -0 -0 -0 -0 -0 -0 -0 -0 -171 -173 -192 -188 -187 -236 -292 -286 -19 -18 -115 -37 -25 -27 -37 -38 -58 -75 -79 -91 -76 -72 -71 -58 -65 -63 -57 -101 -37 -70 -86 -57 -44 -82 -118 -115 -75
-0 -0 -0 -0 -0 -0 -0 -0 -0 -0 -0 -122 -185 -133 -181 -176 -152 -129 -140 -155 -289 -181 -238 -128 -135 -149 -46 -146 -72 -57 -45 -28 -26 -20 -14 -10 -36 -35 -43 -38 -55 -63 -85 -75 -51 -39 -36 -29 -27
-0 -0 -0 -0 -0 -0 -0 -0 -0 -0 -0 -178 -158 -144 -133 -140 -141 -128 -114 -99 -97 -101 -88 -85 -96 -83 -63 -98 -73 -38 -34 -27 -27 -21 -22 -19 -120 -176 -192 -49 -12 -48 -40 -40 -35 -34 -26 -12 -8
-0 -0 -0 -0 -0 -0 -0 -0 -0 -0 -0 -116 -162 -155 -144 -145 -155 -128 -102 -118 -116 -119 -93 -75 -54 -54 -50 -20 -17 -19 -32 -24 -19 -5 -5 -6 -15 -58 -55 -7 -10 -18 -15 -16 -8 -8 -5 -19 -14
-0 -0 -0 -0 -0 -0 -0 -0 -0 -0 -0 -117 -146 -231 -196 -185 -163 -145 -126 -120 -84 -82 -77 -57 -41 -31 -19 -14 -14 -6 -4 -1 -1 -3 -5 -1 -3 -22 -7 -26 -19 -3 -3 -8 -8 -7 -22 -17 -32
-0 -0 -0 -0 -0 -0 -0 -0 -0 -0 -0 -180 -161 -152 -163 -244 -211 -378 -248 -192 -156 -119 -95 -78 -62 -46 -9 -6 -21 -4 -3 -4 -3 -0 -7 -2 -0 -1 -0 -0 -3 -1 -7 -24 -13 -14 -27 -39 -38
-0 -0 -0 -0 -0 -0 -0 -0 -0 -0 -0 -262 -279 -282 -322 -441 -546 -605 -570 -353 -230 -154 -120 -120 -175 -122 -75 -54 -17 -8 -0 -1 -3 -3 -0 -0 -3 -0 -0 -0 -1 -1 -0 -43 -34 -27 -28 -33 -34
-0 -0 -0 -0 -0 -0 -0 -0 -0 -0 -0 -0 -295 -278 -244 -326 -567 -576 -564 -551 -522 -459 -385 -258 -139 -121 -72 -26 -3 -12 -3 -0 -0 -2 -2 -4 -11 -0 -6 -6 -6 -22 -19 -0 -0 -0 -0 -0 -11
-0 -0 -0 -0 -0 -0 -0 -0 -0 -0 -0 -0 -328 -286 -232 -244 -491 -476 -508 -480 -487 -468 -397 -333 -308 -211 -144 -101 -74 -11 -11 -15 -13 -9 -1 -0 -17 -0 -0 -0 -0 -0 -0 -0 -0 -0 -0 -0 -0
-0 -0 -0 -0 -0 -0 -0 -0 -0 -0 -0 -0 -347 -286 -206 -219 -493 -445 -461 -456 -452 -530 -234 -272 -240 -182 -493 -410 -387 -440 -0 -0 -0 -0 -0 -0 -0 -0 -0 -0 -0 -0 -0 -0 -0 -0 -0 -0 -0
-0 -0 -0 -0 -0 -0 -0 -0 -0 -0 -0 -0 -297 -360 -245 -275 -378 -387 -407 -427 -703 -52 -0 -0 -0 -0 -0 -0 -0 -0 -0 -0 -0 -0 -0 -0 -0 -0 -0 -0 -0 -0 -0 -0 -0 -0 -0 -0 -0
-0 -0 -0 -0 -0 -0 -0 -0 -0 -0 -192 -56 -22 -392 -358 -262 -340 -342 -335 -404 -0 -0 -0 -0 -0 -0 -0 -0 -0 -0 -0 -0 -0 -0 -0 -0 -0 -0 -0 -0 -0 -0 -0 -0 -0 -0 -0 -0 -0
-0 -0 -0 -0 -0 -0 -0 -0 -0 -0 -100 -231 -331 -371 -337 -285 -275 -273 -284 -62 -0 -0 -0 -0 -0 -0 -0 -0 -0 -0 -0 -0 -0 -0 -0 -0 -0 -0 -0 -0 -0 -0 -0 -0 -0 -0 -0 -0 -0
-0 -0 -0 -0 -0 -0 -0 -0 -0 -0 -0 -157 -293 -329 -321 -308 -269 -270 -245 -53 -467 -212 -0 -0 -0 -0 -0 -0 -0 -0 -0 -0 -0 -0 -0 -0 -0 -0 -0 -0 -0 -0 -0 -0 -0 -0 -0 -0 -0
-0 -63 -21 -20 -0 -0 -0 -0 -108 -102 -258 -115 -180 -234 -250 -241 -228 -191 -194 -127 -83 -461 -0 -0 -0 -0 -0 -0 -0 -0 -0 -0 -0 -0 -0 -0 -0 -0 -0 -0 -0 -0 -0 -0 -0 -0 -0 -0 -0
Wind_Speed
nan nan nan nan nan nan nan nan nan 6 21 21 19 13 9 7 9 nan nan 16 23 20 16 16 20 20 21 21 21 22 23 23 22 22 nan 24 25 26 26 26 26 nan nan nan nan nan nan nan nan
nan nan nan nan nan nan nan nan 16 11 5 7 19 14 9 6 nan nan 12 17 21 21 16 17 25 23 24 25 24 24 24 24 23 22 23 24 25 26 26 25 25 25 25 23 nan nan nan nan nan
nan nan nan nan nan nan nan 19 20 27 23 16 16 15 11 nan nan nan 16 20 17 16 13 16 24 23 24 27 26 26 25 24 25 25 24 24 24 24 24 24 24 25 24 nan nan nan nan nan nan
nan nan nan nan nan nan nan 12 34 39 nan nan 19 19 14 12 9 nan 21 20 17 15 13 19 22 23 24 26 28 28 28 27 26 26 25 24 24 25 24 24 24 25 25 nan nan nan nan nan nan
nan nan nan nan nan nan nan 3 10 nan nan nan 35 17 18 19 27 26 20 17 20 18 13 16 21 20 22 25 25 26 27 26 26 26 26 26 25 24 24 24 25 27 26 nan nan nan nan nan 14
nan nan nan nan nan nan nan 6 26 31 29 nan nan 30 29 37 33 nan 19 15 15 22 16 14 19 19 19 21 23 24 24 24 24 25 24 25 24 24 23 23 24 26 26 25 25 nan 22 21 18
nan nan nan nan nan nan nan 5 17 24 27 nan nan nan 21 nan nan nan 19 19 19 18 16 13 13 15 19 18 20 21 21 21 23 24 25 26 26 25 25 24 23 24 25 24 25 24 22 24 19
nan nan nan nan nan nan 2 9 20 nan nan nan nan nan 12 15 nan nan 31 17 16 17 17 15 12 10 10 11 20 21 20 19 19 20 20 22 24 24 24 23 23 24 24 23 24 26 24 22 20
nan nan nan nan nan nan 5 13 16 nan nan nan nan nan 10 21 24 18 14 11 10 9 12 13 13 13 11 10 16 17 21 21 21 21 19 16 13 16 17 18 20 21 22 24 23 26 26 22 18
nan nan nan nan nan nan nan 18 nan 24 nan nan nan nan 0 17 17 13 12 11 10 11 11 11 14 14 13 13 13 12 13 13 15 16 16 15 15 14 15 16 19 19 21 20 19 20 20 20 17
nan nan nan nan nan nan nan 23 nan nan nan nan nan nan 20 19 nan 15 9 14 13 13 12 12 14 17 18 15 13 11 11 12 14 18 17 16 16 17 16 14 14 15 18 16 15 15 15 15 16
nan nan nan nan nan nan nan nan 23 nan nan nan nan nan 14 20 nan 19 13 15 11 16 18 17 15 17 18 17 17 17 17 17 17 18 17 16 15 15 16 17 18 18 17 16 15 15 16 16 20
nan nan nan nan nan nan nan nan nan 16 17 28 29 28 21 13 19 24 21 19 12 13 17 21 20 20 23 24 26 24 22 20 20 20 17 16 16 16 16 18 19 19 18 19 19 19 20 20 19
nan nan nan nan nan nan nan nan nan nan nan 36 40 39 26 11 19 25 30 23 13 17 18 22 22 20 23 27 26 24 22 18 20 22 22 23 20 18 18 18 17 17 19 18 20 20 20 21 18
nan nan nan nan nan nan nan nan nan nan nan 33 36 38 31 20 17 21 27 22 18 17 19 24 23 21 21 21 20 19 18 17 16 17 19 22 22 18 16 17 20 21 20 18 16 14 14 16 17
nan nan nan nan nan nan nan nan nan nan nan nan 40 36 27 29 25 22 23 24 25 25 24 18 20 23 23 21 21 22 21 19 16 15 17 19 21 22 18 19 21 19 18 19 17 18 20 26 26
nan nan nan nan nan nan nan nan nan nan nan 34 33 29 29 27 26 25 28 28 29 28 25 21 20 21 24 23 23 23 27 25 23 20 18 20 22 17 15 14 16 18 22 23 23 25 26 30 28
nan nan nan nan nan nan nan nan nan nan nan 29 21 25 23 23 25 30 31 31 33 31 29 26 22 20 24 26 26 24 24 26 25 25 28 31 30 24 24 27 23 24 28 25 26 30 30 33 30
nan nan nan nan nan nan nan nan nan nan nan 30 25 21 20 26 21 32 31 29 30 29 31 27 29 22 23 23 26 27 30 29 29 32 35 39 37 32 31 27 27 28 28 31 33 33 35 36 35
nan nan nan nan nan nan nan nan nan nan nan 34 30 23 25 23 20 29 30 32 30 29 29 30 32 29 26 25 27 30 31 33 34 34 37 37 40 38 34 34 32 29 31 37 41 42 39 37 36
nan nan nan nan nan nan nan nan nan nan nan nan 31 29 25 29 27 28 29 30 33 33 31 31 33 35 33 33 35 36 34 33 32 33 33 36 41 39 39 38 33 36 37 38 38 40 42 39 38
nan nan nan nan nan nan nan nan nan nan nan nan 34 32 30 30 25 29 34 31 27 31 32 33 36 37 37 39 37 39 37 41 37 38 38 38 37 41 44 42 43 42 40 42 41 41 41 39 38
nan nan nan nan nan nan nan nan nan nan nan nan 36 34 34 35 32 30 32 33 31 33 33 34 38 39 38 40 42 41 42 42 43 43 46 45 44 46 47 47 46 46 nan nan nan nan nan nan nan
nan nan nan nan nan nan nan nan nan nan nan nan 37 37 37 37 34 34 35 41 35 33 36 37 41 40 41 42 41 42 44 44 48 48 48 47 48 48 nan nan nan nan nan nan nan nan nan nan nan
nan nan nan nan nan nan nan nan nan nan nan nan 40 44 44 40 39 44 44 42 45 38 nan nan nan nan 43 45 44 nan nan nan nan nan nan nan nan nan nan nan nan nan nan nan nan nan nan nan nan
nan nan nan nan nan nan nan nan nan nan nan nan 30 32 37 41 43 50 48 46 nan nan nan nan nan nan nan nan nan nan nan nan nan nan nan nan nan nan nan nan nan nan nan nan nan nan nan nan nan
nan nan nan nan nan nan nan nan nan nan nan nan nan 42 44 47 45 48 48 50 nan nan nan nan nan nan nan nan nan nan nan nan nan nan nan nan nan nan nan nan nan nan nan nan nan nan nan nan nan
nan nan nan nan nan nan nan nan nan nan nan 41 48 49 47 44 43 45 48 nan nan nan nan nan nan nan nan nan nan nan nan nan nan nan nan nan nan nan nan nan nan nan nan nan nan nan nan nan nan
nan nan nan nan nan nan nan nan nan nan nan 40 44 48 52 53 49 44 44 nan nan nan nan nan nan nan nan nan nan nan nan nan nan nan nan nan nan nan nan nan nan nan nan nan nan nan nan nan nan
nan nan nan nan nan nan nan nan nan 55 49 47 49 51 59 65 57 58 62 nan nan nan nan nan nan nan nan nan nan nan nan nan nan nan nan nan nan nan nan nan nan nan nan nan nan nan nan nan nan
Wind_Direction
nan nan nan nan nan nan nan nan nan 161 235 228 244 299 329 321 356 nan nan 320 314 316 316 308 303 301 300 295 293 292 290 291 294 300 nan 303 303 305 310 313 315 nan nan nan nan nan nan nan nan
nan nan nan nan nan nan nan nan 238 219 223 209 239 228 226 258 nan nan 315 323 316 317 315 311 312 307 305 303 298 293 293 296 299 301 303 304 306 308 311 312 314 314 319 322 nan nan nan nan nan
nan nan nan nan nan nan nan 301 298 272 244 247 233 225 218 nan nan nan 319 325 324 308 307 316 311 309 307 306 303 299 297 299 302 303 304 304 305 304 306 311 316 316 320 nan nan nan nan nan nan
nan nan nan nan nan nan nan 4 321 300 nan nan 284 228 206 234 280 nan 318 326 323 319 311 316 310 307 304 304 304 303 302 303 304 306 307 308 308 307 308 312 315 318 318 nan nan nan nan nan nan
nan nan nan nan nan nan nan 360 289 nan nan nan 288 330 300 250 273 291 305 306 310 306 313 319 322 322 316 312 309 306 305 306 307 312 315 313 311 310 309 314 317 319 322 nan nan nan nan nan 352
nan nan nan nan nan nan nan 39 291 303 319 nan nan 306 303 292 295 nan 290 296 307 312 313 319 328 329 330 327 325 321 317 319 318 317 318 317 315 314 313 316 319 320 326 329 333 nan 347 352 353
nan nan nan nan nan nan nan 348 277 296 292 nan nan nan 317 nan nan nan 299 308 315 309 302 295 302 317 324 328 330 331 333 337 336 332 329 325 324 323 323 324 324 327 330 335 338 341 348 354 2
nan nan nan nan nan nan 280 273 282 nan nan nan nan nan 306 305 nan nan 311 315 319 309 310 316 318 308 319 338 344 343 340 338 335 331 330 331 328 329 334 335 337 341 341 343 345 344 350 3 4
nan nan nan nan nan nan 276 290 270 nan nan nan nan nan 258 287 290 288 284 293 299 322 337 340 341 336 337 335 347 341 341 344 350 350 353 346 331 333 338 341 347 349 349 347 348 351 355 9 14
nan nan nan nan nan nan nan 244 nan 279 nan nan nan nan 193 261 297 301 314 314 345 349 353 346 344 346 342 338 339 341 350 347 347 346 351 356 358 351 353 358 0 359 356 351 3 12 21 15 350
nan nan nan nan nan nan nan 267 nan nan nan nan nan nan 310 305 nan 323 333 342 2 357 338 358 353 343 345 342 333 326 329 337 341 349 345 347 349 347 352 353 353 352 7 350 9 8 5 1 337
nan nan nan nan nan nan nan nan 271 nan nan nan nan nan 306 323 nan 329 343 358 17 354 358 349 358 343 346 330 329 329 326 327 326 333 338 337 331 337 337 341 348 344 343 345 354 344 350 351 347
nan nan nan nan nan nan nan nan nan 273 277 288 305 307 322 327 294 327 11 27 15 344 354 340 346 345 339 326 325 323 325 320 318 313 324 325 324 330 326 332 334 331 326 335 342 349 341 341 347
nan nan nan nan nan nan nan nan nan nan nan 283 294 305 300 306 321 337 360 0 344 340 347 326 339 341 332 322 320 315 313 318 314 315 323 329 322 318 318 314 318 320 322 332 335 337 334 331 335
nan nan nan nan nan nan nan nan nan nan nan 283 278 278 282 303 293 352 350 327 322 339 331 330 343 340 339 333 319 312 323 318 311 311 314 319 312 315 318 315 315 323 325 329 331 329 319 312 309
nan nan nan nan nan nan nan nan nan nan nan nan 272 277 284 279 282 278 294 308 327 312 313 318 340 334 332 339 329 326 329 322 317 322 319 315 316 319 316 319 321 326 317 315 312 311 317 308 309
nan nan nan nan nan nan nan nan nan nan nan 258 264 275 273 271 273 285 282 282 284 302 306 326 326 329 327 329 324 320 317 311 314 309 297 303 302 280 300 303 308 303 301 292 299 301 305 306 306
nan nan nan nan nan nan nan nan nan nan nan 291 262 263 265 283 292 283 283 289 293 296 297 298 299 313 317 313 310 309 303 292 292 293 292 296 300 307 300 298 296 301 293 291 293 295 301 302 303
nan nan nan nan nan nan nan nan nan nan nan 282 275 279 287 295 294 283 287 285 283 283 283 281 280 278 291 301 302 298 295 295 290 286 284 286 289 289 290 294 289 291 278 286 287 291 292 294 295
nan nan nan nan nan nan nan nan nan nan nan 296 295 289 292 288 289 285 285 282 277 278 277 278 279 279 281 289 291 290 293 291 292 293 288 290 290 294 290 290 287 284 283 280 283 287 290 291 289
nan nan nan nan nan nan nan nan nan nan nan nan 290 295 291 307 301 293 288 289 288 283 279 278 279 280 282 284 287 288 292 292 292 287 290 288 290 287 287 283 281 282 281 282 285 287 289 293 296
nan nan nan nan nan nan nan nan nan nan nan nan 288 290 299 301 291 292 292 294 299 288 281 279 278 278 282 283 287 292 294 295 294 293 292 289 286 289 285 286 284 283 284 281 284 285 288 294 292
nan nan nan nan nan nan nan nan nan nan nan nan 295 302 306 302 298 296 297 293 292 288 279 274 274 272 274 278 284 288 289 291 291 292 288 286 286 285 284 285 285 287 nan nan nan nan nan nan nan
nan nan nan nan nan nan nan nan nan nan nan nan 279 284 293 291 291 286 284 289 289 285 283 281 279 278 277 277 277 281 286 288 290 290 289 287 287 287 nan nan nan nan nan nan nan nan nan nan nan
nan nan nan nan nan nan nan nan nan nan nan nan 289 288 294 293 292 289 289 288 288 280 nan nan nan nan 278 280 281 nan nan nan nan nan nan nan nan nan nan nan nan nan nan nan nan nan nan nan nan
nan nan nan nan nan nan nan nan nan nan nan nan 265 287 280 280 281 283 286 282 nan nan nan nan nan nan nan nan nan nan nan nan nan nan nan nan nan nan nan nan nan nan nan nan nan nan nan nan nan
nan nan nan nan nan nan nan nan nan nan nan nan nan 270 278 279 277 277 277 276 nan nan nan nan nan nan nan nan nan nan nan nan nan nan nan nan nan nan nan nan nan nan nan nan nan nan nan nan nan
nan nan nan nan nan nan nan nan nan nan nan 248 260 276 276 278 280 277 274 nan nan nan nan nan nan nan nan nan nan nan nan nan nan nan nan nan nan nan nan nan nan nan nan nan nan nan nan nan nan
nan nan nan nan nan nan nan nan nan nan nan 270 273 278 284 279 282 280 276 nan nan nan nan nan nan nan nan nan nan nan nan nan nan nan nan nan nan nan nan nan nan nan nan nan nan nan nan nan nan
nan nan nan nan nan nan nan nan nan 263 256 246 256 269 276 279 273 276 276 nan nan nan nan nan nan nan nan nan nan nan nan nan nan nan nan nan nan nan nan nan nan nan nan nan nan nan nan nan nan